Location: GMARS
(34.2910°N, 116.3838°W)
Time: 18:34:21
(UTC-08:00)

Daily predictions for brighter satellites

Satellite Brightness Start Highest point End
(mag) Time Altitude Azimuth Time Altitude Azimuth Time Altitude Azimuth
ASTRO E2 3.6 17:57:34 10° W 18:01:25 44° SSW 18:05:15 10° ESE
ATLAS 2A CENTAUR R/B 2.6 18:00:01 10° SW 18:01:43 20° SSE 18:04:58 10° ESE
Cosmos 1536 Rocket 4.5 18:00:03 10° NNE 18:03:55 28° ENE 18:07:45 10° SE
Cosmos 1818 3.6 18:00:54 10° SSW 18:06:18 73° ESE 18:11:45 10° NNE
Cosmos 1484 Rocket 3.8 18:02:39 10° S 18:06:32 53° W 18:10:24 10° NNW
SJ-6B 3.6 18:04:22 10° SE 18:07:57 32° ENE 18:11:31 10° N
ERBS 3.7 18:06:34 10° NW 18:09:52 43° SW 18:13:09 10° SSE
BREEZE-M DEB (TANK) 4.3 18:08:58 10° NNE 18:10:02 11° NE 18:11:20 10° ENE
Meteor 1-18 Rocket 4.2 18:06:41 10° N 18:12:14 73° E 18:17:51 10° SSE
SL-16 R/B 2.2 18:09:49 10° NNW 18:15:27 62° ENE 18:21:02 10° SSE
Resurs 01 Rocket 2.8 18:12:34 10° ESE 18:15:52 21° ENE 18:19:09 10° NNE
TSX-5 3.3 18:13:54 10° S 18:17:06 55° ESE 18:20:12 10° NNE
Cosmos 1340 3.7 18:14:27 10° NNE 18:17:35 24° ENE 18:20:43 10° SE
Cosmos 1992 Rocket 4.5 18:14:14 10° NNW 18:19:25 66° WSW 18:24:35 10° S
Cosmos 407 Rocket 3.7 18:14:15 10° SSW 18:19:27 80° WNW 18:24:45 10° NNE
Nadezhda 1 Rocket 4.0 18:14:16 10° N 18:20:21 89° W 18:26:25 10° S
DNEPR-1 R/B 3.7 18:17:00 10° NNW 18:21:05 49° ENE 18:25:16 10° SE
Cosmos 676 Rocket 3.9 18:16:32 10° S 18:21:40 72° ESE 18:26:51 10° NNE
Cosmos 1238 Rocket 3.5 18:21:08 10° NNE 18:23:21 19° ENE 18:24:54 13° ESE
Gbstr 26 Del rocket 3.0 18:19:49 10° SSW 18:23:36 48° SE 18:26:33 14° ENE
Tiangong 2 2.1 18:22:06 10° NW 18:24:52 30° NNE 18:26:33 18° ENE
DELTA 2 R/B (1) 4.0 18:19:32 10° WNW 18:25:01 53° N 18:29:26 16° E
Orbus 7S 4.5 18:24:12 10° WSW 18:26:23 23° S 18:28:52 11° SE
BREEZE-M DEB (TANK) 3.6 18:21:13 10° NW 18:28:52 49° NNE 18:30:57 19° E
Cosmos 1300 Rocket 3.8 18:27:15 10° SSE 18:31:27 46° E 18:35:41 10° NNE
Cosmos 1536 3.8 18:29:16 10° SSE 18:32:35 25° E 18:35:53 10° NE
Cosmos 2322 Rocket 2.2 18:27:40 10° NNW 18:33:18 88° WSW 18:38:54 10° SSE
Cosmos 2181 Rocket 4.2 18:28:44 10° N 18:34:46 49° E 18:40:52 10° SSE
Resurs 1-3 4.3 18:34:28 10° SE 18:38:18 30° ENE 18:42:08 10° N
Meteor 1-13 Rocket 4.3 18:35:44 10° N 18:41:08 52° E 18:46:37 10° SSE
Okean 1 3.4 18:37:53 10° N 18:41:57 80° W 18:46:00 10° S
Cosmos 1140 Rocket 3.4 18:39:19 10° S 18:44:22 69° ESE 18:49:30 10° NNE
ATLAS CENTAUR R/B 3.3 18:40:58 10° S 18:45:26 21° SE 18:45:58 20° SE
FENGYUN 3A 3.6 18:40:10 10° SSE 18:45:28 61° ENE 18:50:48 10° N
Cosmos 1461 2.7 18:41:50 10° NNW 18:45:52 81° ENE 18:50:01 10° SSE
Cosmos 2322 4.2 18:40:50 10° N 18:46:07 37° ENE 18:49:34 19° ESE
H-2A R/B 3.2 18:45:20 21° SE 18:47:15 36° ENE 18:50:41 10° N
Cosmos 2074 Rocket 4.3 18:43:46 10° SSE 18:49:30 40° E 18:55:16 10° NNE
Cosmos 1709 Rocket 4.1 18:43:57 10° S 18:50:12 80° W 18:56:24 10° N
Cosmos 2184 Rocket 4.4 18:44:29 10° SSE 18:50:17 39° E 18:56:02 10° NNE
Cosmos 44 4.4 18:49:29 10° NW 18:53:32 38° WSW 18:57:30 10° S
SL-19 R/B 4.3 18:48:13 10° SSE 18:53:42 61° ENE 18:59:29 10° N
Spot 2 Rocket 3.5 18:49:24 10° SSE 18:54:20 56° ENE 18:59:17 10° N
Cosmos 614 Rocket 3.8 18:51:34 10° S 18:56:36 67° ESE 19:01:38 10° NNE
Helios 1A 4.0 18:58:08 27° NE 18:58:08 27° NE 19:00:50 10° N
COSMOS 2428 3.7 18:54:29 10° N 18:59:03 25° ENE 18:59:03 25° ENE
Meteor 2-4 Rocket 3.8 18:55:04 10° N 19:00:23 46° ENE 19:04:57 13° SSE
HJ-1C 3.5 18:58:55 10° S 19:02:17 74° W 19:05:39 10° NNW
Okean 1 Rocket 3.0 18:57:58 10° S 19:02:26 83° E 19:06:56 10° N
Cosmos 1850 Rocket 3.9 18:58:16 10° S 19:03:27 65° ESE 19:08:44 10° NNE
GPS 2-04 Rocket1 3.3 19:00:28 10° SW 19:04:35 45° SSE 19:05:18 41° SE
Abrixas rocket 3.3 19:03:31 10° SSW 19:05:50 32° S 19:05:50 32° S
Meteor 1-11 Rocket 4.0 19:06:35 10° SSW 19:12:18 73° W 19:18:11 10° N
Cosmos 2219 3.1 19:13:03 10° SSW 19:18:45 72° ESE 19:23:09 18° NNE
Helios 1B rocket 2.2 19:20:32 62° NE 19:21:09 79° ESE 19:25:17 10° S
Okean 1-7 Rocket 3.4 19:20:42 10° N 19:25:14 81° E 19:25:47 67° SSE
Cosmos 2360 Rocket 2.1 19:19:46 10° NNW 19:25:27 86° WSW 19:28:56 24° SSE
Cosmos 2219 Rocket 3.9 19:23:56 10° N 19:25:54 18° NNE 19:25:54 18° NNE
OAO 3 Copernicus 4.2 19:25:24 10° W 19:30:29 80° SSW 19:30:52 73° SE
ALOS 3.8 19:30:15 10° SSW 19:34:31 36° W 19:38:49 10° NNW
Cosmos 1025 Rocket 4.3 19:30:14 10° N 19:32:29 30° N 19:32:29 30° N
BREEZE-M DEB (TANK) 4.4 19:36:30 10° WSW 19:39:12 25° WNW 19:39:12 25° WNW
Meteor 2-13 Rocket 4.2 19:37:56 10° S 19:45:02 59° NE 19:50:00 10° N
Resurs 01 Rocket 3.5 19:48:20 10° SSW 19:52:08 28° W 19:55:56 10° NW
Cosmos 2333 Rocket 4.1 19:49:26 10° N 19:51:05 18° N 19:51:05 18° N
BREEZE-M DEB (TANK) 4.5 19:53:02 10° NW 19:56:45 52° NNE 19:56:45 52° NNE
H-2A R/B (2) 4.0 19:55:19 10° WSW 19:55:29 11° SW 19:55:29 11° SW
DELTA 2 R/B (1) 4.3 20:06:06 10° WNW 20:10:13 50° W 20:10:13 50° W
COSMOS 2428 4.5 20:38:12 10° NW 20:41:08 27° WNW 20:41:08 27° WNW
